Regional Weather Roundup
Issued by NWS

Home | Current Version | Previous Version | Text Only | Print | Product List | Glossary Off
Versions: 1 2 3 4 5 6 7 8 9 10 11 12 13 14 15 16 17 18 19 20 21 22 23 24 25 26 27 28 29 30 31 32 33 34 35 36 37 38 39 40 41 42 43 44 45 46 47 48 49 50

000
ASUS43 KMPX 080410
RWRMN
WEATHER ROUNDUP FOR MINNESOTA
NATIONAL WEATHER SERVICE TWIN CITIES/CHANHASSEN MN
1000 PM CST WED DEC 07 2016


NOTE: "FAIR" INDICATES FEW OR NO CLOUDS BELOW 12,000 FEET WITH NO
SIGNIFICANT WEATHER AND/OR OBSTRUCTIONS TO VISIBILITY. N/A MEANS
CURRENT SKY AND/OR WEATHER CONDITIONS ARE NOT AVAILABLE.

MNZ060>063-068>070-080500-
   Twin Cities Metro

CITY           SKY/WX    TMP DP  RH WIND       PRES   REMARKS
TWIN CITIES    FLURRIES  16   8  71 W15G23    30.13S WCI   1
ST PAUL        CLOUDY    17   9  70 W16G26    30.14S WCI   2
CRYSTAL        FLURRIES  16   7  67 W18G28    30.11S WCI   0
BLAINE         FLURRIES  18  10  73 W15       30.10S WCI   3
LAKEVILLE      LGT SNOW  12   9  85 W17G26    30.13S WCI  -5
EDEN PRAIRIE   FLURRIES  16   8  71 W18G25    30.13S WCI   0
SOUTH ST PAUL  FLURRIES  17   9  69 W15G21    30.12S WCI   3
LAKE ELMO      CLOUDY    18  10  73 W16       30.11S WCI   3
$$
MNZ001>005-007-008-013>017-022>024-027-028-080500-
   Northwest Minnesota

CITY           SKY/WX    TMP DP  RH WIND       PRES   REMARKS
BEMIDJI        LGT SNOW  20  17  88 NW17      30.02R WCI   5
HALLOCK        CLOUDY    19  18  93 N21G29    30.19R WCI   3
ROSEAU         LGT SNOW  19  16  86 N15G24    30.11R WCI   5
WARROAD        FLURRIES  19  16  86 NW15      30.09R WCI   5
THIEF RVR FALL FLURRIES  20  17  88 NW18      30.12R WCI   5
CROOKSTON      LGT SNOW  21  19  93 N28G33    30.16R WCI   3
FOSSTON        LGT SNOW  18  16  93 NW14      30.09R WCI   4
DETROIT LAKES  LGT SNOW  19  18  93 NW21      30.10R WCI   3
MOORHEAD       MIX PCPN  18  16  93 NW20G28   30.19R WCI   1
PARK RAPIDS    FLURRIES  19  12  74 NW16      30.03R WCI   4
$$
MNZ006-009>011-018-025>026-080500-
   North Central Minnesota

CITY           SKY/WX    TMP DP  RH WIND       PRES   REMARKS
BAUDETTE       LGT SNOW  21  17  84 N16G24    30.03R FOG     WCI   7
FLAG ISLAND    CLOUDY    21  18  86 N22       30.07R WCI   5
INTL FALLS     LGT SNOW  22  18  85 N13       29.96R FOG     WCI  10
WASKISH        FLURRIES  21  19  93 NW12      30.02R WCI   9
BIG FORK       LGT SNOW  21  19  93 NW5       29.96R WCI  15
LONGVILLE      FLURRIES  21  18  86 W10G16    29.99R WCI  10
GRAND RAPIDS   LGT SNOW  22  19  89 NW14      29.97R FOG     WCI   9
CRANE LAKE     LGT SNOW  21  19  93 N8        29.93R WCI  12
COOK           FLURRIES  21  18  86 NW5       29.91R WCI  15
$$
MNZ012-019>021-037-080500-
   Northeast Minnesota

CITY           SKY/WX    TMP DP  RH WIND       PRES   REMARKS
DULUTH         LGT SNOW  18  14  84 W16       29.90R FOG     WCI   3
ELY            LGT SNOW  21  18  86 NW8       29.86R WCI  12
HIBBING        LGT SNOW  19  16  88 W5        29.91R FOG     WCI  12
EVELETH        LGT SNOW  22  19  86 NW12G17   29.90R WCI  11
DULUTH HARBOR  FLURRIES  21  18  86 SW15      29.97R WCI   8
TWO HARBORS    LGT SNOW  21  16  79 W6        29.88R WCI  14
SILVER BAY     FLURRIES  21  18  86 CALM      29.85R
GRAND MARAIS     N/A     26  19  74 NW8       29.82R WCI  18
G MARAIS ARPRT LGT SNOW  18  12  79 NW7G16    29.75R WCI   8
$$
MNZ029>031-032-039>041-046>048-054>057-064-080500-
   West Central Minnesota

CITY           SKY/WX    TMP DP  RH WIND       PRES   REMARKS
FERGUS FALLS   LGT SNOW  12  10  92 NW28      30.21R WCI  -9
WHEATON        LGT SNOW  14  10  85 W23G32    30.25R WCI  -5
MORRIS         LGT SNOW  12  10  92 NW23G29   30.19R VSB 1   WCI  -7
ALEXANDRIA     LGT SNOW  12   9  87 W16G28    30.12S FOG     WCI  -5
ELBOW LAKE     LGT SNOW  13  10  91 NW16      30.17R WCI  -4
WADENA         LGT SNOW  16  12  86 W13G18    30.07R WCI   2
GLENWOOD       LGT SNOW  10   9  92 W17G29    30.14R WCI  -7
BENSON         LGT SNOW  12   9  85 NW22      30.19S WCI  -7
ORTONVILLE     LGT SNOW  12   7  79 W20G28    30.24S WCI  -6
MADISON        LGT SNOW  16   9  73 W22G28    30.26S WCI  -2
WILLMAR        LGT SNOW  14  10  85 W18G29    30.19R WCI  -3
$$
MNZ033>034-036-042>043-049>051-058-059-080500-
   Central Minnesota

CITY           SKY/WX    TMP DP  RH WIND       PRES   REMARKS
ST CLOUD       LGT SNOW  14   9  80 W18G24    30.10R WCI  -3
PAYNESVILLE    CLOUDY    13   9  81 W20G29    30.15R WCI  -4
AITKIN         MIX PCPN  19  12  73 W7        29.99R WCI  10
PINE RIVER     LGT SNOW  18  14  86 W8        30.04S WCI   7
BRAINERD       CLOUDY    17  12  80 W13       30.03R WCI   4
STAPLES        CLOUDY    12  10  92 W14       30.06R WCI  -3
LONG PRAIRIE   LGT SNOW  12   9  85 SW16      30.10R WCI  -4
LITTLE FALLS   LGT SNOW  16  10  79 W15       30.07S WCI   1
LITCHFIELD     MIX PCPN  14   9  79 W16G24    30.15S WCI  -2
BUFFALO        FLURRIES  16  10  76 W17G23    30.14R WCI   0
MAPLE LAKE     LGT SNOW  16  11  81 W13G25    30.13S WCI   2
HUTCHINSON     FLURRIES  15  10  79 W23G30    30.17S WCI  -4
$$
MNZ037-044-045-052-053-080500-
   East Central Minnesota

CITY           SKY/WX    TMP DP  RH WIND       PRES   REMARKS
PRINCETON      FLURRIES  16  10  79 W17       30.08R WCI   0
MORA           FLURRIES  18  12  79 W10       30.05S WCI   6
CAMBRIDGE      LGT SNOW  18   9  68 W10G18    30.06S WCI   6
RUSH CITY      CLOUDY    16  10  79 W15G23    30.06R WCI   1
MOOSE LAKE     LGT SNOW  18  14  86 W8        29.96S WCI   7
HINCKLEY       FLURRIES  18  14  86 W14       30.01S WCI   4
CLOQUET        LGT SNOW  18  12  79 W10       29.92S WCI   6
MCGREGOR       CLOUDY    19  14  79 W8G16     29.98R WCI   9
$$
MNZ071>073-080-081-089-090-097-098-080500-
   Southwest Minnesota

CITY           SKY/WX    TMP DP  RH WIND       PRES   REMARKS
MONTEVIDEO     LGT SNOW  14   9  79 NW17G25   30.25R WCI  -3
GRANITE FALLS  FLURRIES  14   9  81 W24       30.26R WCI  -5
CANBY          CLOUDY    12   5  73 NW21G31   30.28R WCI  -6
MARSHALL       LGT SNOW  10   5  79 NW26      30.25R WCI -11
REDWOOD FALLS  LGT SNOW  12   5  73 W17G30    30.24R WCI  -5
OLIVIA         LGT SNOW  16  10  79 W18G25    30.20R WCI  -1
PIPESTONE      PTCLDY     9   3  78 NW22G32   30.27R WCI -11
WINDOM         CLEAR     10   3  72 W23G31    30.23R WCI -10
WORTHINGTON    CLEAR      8   2  76 W24       30.26R WCI -13
JACKSON        CLEAR     10   3  72 W21G28    30.24R WCI  -9
TRACY          MOCLDY    11   4  74 W16G24    30.26R WCI  -6
SLAYTON        CLEAR      8   2  78 W24G35    30.25R WCI -14
$$
MNZ065>067-074>077-082>085-091>093-080500-
   South Central Minnesota

CITY           SKY/WX    TMP DP  RH WIND       PRES   REMARKS
MANKATO        FLURRIES  12   6  77 W18       30.20R WCI  -6
NEW ULM        CLOUDY    10   5  79 W24G30    30.21S WCI -10
ST JAMES       CLEAR     10   5  79 W22G28    30.24S WCI  -9
FAIRMONT       CLEAR     11   4  73 NW22G29   30.24R WCI  -8
GLENCOE        FLURRIES  15  11  83 W17G29    30.16S WCI  -1
OWATONNA       MOCLDY    14   7  73 W23G31    30.16S WCI  -5
WASECA         CLEAR     12   5  73 W16G24    30.20R WCI  -4
ALBERT LEA     MOCLDY    16   9  73 W14G26    30.18S WCI   1
$$
MNZ078>079-086>088-094>096-080500-
   Southeast Minnesota

CITY           SKY/WX    TMP DP  RH WIND       PRES   REMARKS
ROCHESTER      LGT SNOW  14   8  77 W24G33    30.11S WCI  -5
RED WING       FLURRIES  18   9  68 W17       30.12R WCI   2
STANTON        FLURRIES  16  10  77 W18G25    30.14S WCI   0
DODGE CENTER   CLOUDY    12   7  79 W23G29    30.12S WCI  -7
WINONA         FLURRIES  19  12  73 W13G21    30.14S WCI   7
AUSTIN         CLOUDY    12   7  79 NW16G29   30.16S WCI  -4
PRESTON        LGT SNOW  14   8  78 W22       30.13S WCI  -4
$$
ABBREVIATIONS USED IN REMARKS
   TC - TEMPERATURES IN CELSIUS
  WCI - WIND CHILL INDEX
   HX - HEAT INDEX
  VSB - VISIBILITY
$$




USA.gov is the U.S. government's official web portal to all federal, state and local government web resources and services.